Olympia, WA

10:32 AM PDT on June 26, 2017 (GMT -0700)
Olympia

Weather History for KOLM - October, 2013

Change the Weather History Date:

Wednesday, October 23, 2013

  Actual Average Record
Temperature  
Mean Temperature 48 °F 48 °F  
Max Temperature 55 °F 57 °F 77 °F (1992)
Min Temperature 40 °F 40 °F 27 °F (1975)
Degree Days  
Heating Degree Days 17 17  
Month to date heating degree days 363 314  
Since 1 July heating degree days 582 654  
Cooling Degree Days 0 0  
Month to date cooling degree days 0 0  
Year to date cooling degree days 147 106  
Moisture  
Dew Point 45 °F    
Average Humidity 95    
Maximum Humidity 100    
Minimum Humidity 89    
Precipitation  
Precipitation 0.00 in 0.19 in 1.69 in (1960)
Month to date precipitation 1.93 2.96  
Year to date precipitation 34.55 32.27  
Sea Level Pressure  
Sea Level Pressure 30.03 in    
Wind  
Wind Speed 3 mph (ENE)    
Max Wind Speed 7 mph    
Max Gust Speed 9 mph    
Visibility 2 miles    
Events Fog    
T = Trace of Precipitation, MM = Missing Value Source: NWS Daily Summary

Daily Weather History Graph

Daily Weather History Graph

Search for Another Location

Airport or City:

Trip Planner

Search our weather history database for the weather conditions in past years. The results will help you decide how hot, cold, wet, or windy it might be!

Date:

Astronomy

Oct. 23, 2013 Rise Set
Actual Time 7:41 AM PDT 6:09 PM PDT
Civil Twilight 7:10 AM PDT 6:40 PM PDT
Nautical Twilight 6:34 AM PDT 7:16 PM PDT
Astronomical Twilight 5:59 AM PDT 7:51 PM PDT
Moon 9:35 PM PDT (10/23) 12:12 PM PDT (10/23)
Length of Visible Light 11h 30m
Length of Day
10h 27m
Waning Gibbous, 78% of the Moon is Illuminated
Oct 23
Waning Gibbous
Oct 26
Last Quarter
Nov 3
New
Nov 9
First Quarter
Nov 17
Full

Hourly Weather History & Observations

Time (PDT) Temp. Windchill Dew Point Humidity Pressure Visibility Wind Dir Wind Speed Gust Speed Precip Events Conditions
12:54 AM 45.0 °F 43.5 °F 44.1 °F 97% 30.05 in 0.2 mi NE 3.5 mph - N/A Fog Fog
1:54 AM 44.1 °F 40.8 °F 44.1 °F 100% 30.05 in 0.2 mi ENE 5.8 mph - N/A Fog Fog
2:54 AM 45.0 °F - 45.0 °F 100% 30.05 in 0.2 mi Calm Calm - N/A Fog Fog
3:54 AM 45.0 °F 43.5 °F 45.0 °F 100% 30.04 in 0.2 mi NE 3.5 mph - N/A Fog Fog
4:54 AM 45.0 °F 43.5 °F 45.0 °F 100% 30.04 in 0.2 mi East 3.5 mph - N/A Fog Fog
5:54 AM 45.0 °F 43.5 °F 44.1 °F 97% 30.04 in 0.2 mi East 3.5 mph - N/A Fog Fog
6:54 AM 45.0 °F 43.5 °F 45.0 °F 100% 30.04 in 0.2 mi East 3.5 mph - N/A Fog Fog
7:54 AM 46.0 °F 43.9 °F 45.0 °F 96% 30.04 in 0.2 mi ESE 4.6 mph - N/A Fog Fog
8:54 AM 46.0 °F 44.8 °F 46.0 °F 100% 30.05 in 0.2 mi ENE 3.5 mph - N/A Fog Fog
9:54 AM 46.9 °F - 46.0 °F 97% 30.06 in 0.2 mi East 3.5 mph - N/A Fog Fog
10:54 AM 48.0 °F - 46.9 °F 96% 30.06 in 0.2 mi NE 3.5 mph - N/A Fog Fog
11:10 AM 48.0 °F - 46.9 °F 96% 30.06 in 0.5 mi NE 4.6 mph - N/A Fog Fog
11:54 AM 48.9 °F - 48.0 °F 97% 30.06 in 0.5 mi ENE 5.8 mph - N/A Fog Fog
12:54 PM 50.0 °F - 48.9 °F 96% 30.05 in 0.5 mi ENE 5.8 mph - N/A Fog Fog
1:54 PM 51.1 °F - 48.9 °F 92% 30.04 in 2.0 mi Variable 4.6 mph - N/A   Overcast
2:54 PM 52.0 °F - 48.9 °F 89% 30.02 in 4.0 mi NNE 3.5 mph - N/A   Overcast
3:54 PM 53.1 °F - 50.0 °F 89% 30.01 in 6.0 mi ENE 4.6 mph - N/A   Mostly Cloudy
4:54 PM 54.0 °F - 50.0 °F 86% 30.00 in 10.0 mi Calm Calm - N/A   Scattered Clouds
5:54 PM 52.0 °F - 48.9 °F 89% 29.99 in 5.0 mi Calm Calm - N/A   Clear
6:54 PM 45.0 °F - 45.0 °F 100% 30.00 in 7.0 mi Calm Calm - N/A   Clear
7:22 PM 44.1 °F - 44.1 °F 100% 30.00 in 1.0 mi Calm Calm - N/A   Mist
7:54 PM 42.1 °F - 41.0 °F 96% 30.01 in 1.0 mi Calm Calm - N/A   Mist
8:01 PM 43.0 °F - 43.0 °F 100% 30.01 in 0.2 mi Calm Calm - N/A Fog Fog
8:38 PM 39.9 °F - 39.9 °F 100% 30.01 in 0.8 mi Calm Calm - N/A   Mist
8:54 PM 41.0 °F 39.0 °F 41.0 °F 100% 30.02 in 0.2 mi South 3.5 mph - N/A Fog Fog
9:54 PM 39.9 °F - 39.9 °F 100% 30.03 in 0.2 mi Calm Calm - N/A Fog Fog
10:54 PM 41.0 °F - 39.9 °F 96% 30.04 in 0.5 mi Calm Calm - N/A Fog Fog
11:04 PM 41.0 °F - 41.0 °F 100% 30.03 in 0.2 mi Calm Calm - N/A Fog Fog
11:54 PM 43.0 °F - 42.1 °F 97% 30.04 in 0.2 mi Calm Calm - N/A Fog Fog